Tracking 18840 objects as of 19-November-2017
HD Live streaming from Space Station
objects crossing your sky now

FENGYUN 1C DEB

Track FENGYUN 1C DEB now!
10-day predictions


NORAD ID: 32163
Int'l Code: 1999-025CTH
Perigee: 753.4 km
Apogee: 841.5 km
Inclination: 99.6 °
Period: 100.7 minutes
Semi major axis: 7168 km
RCS: 0.0079 m2 (small)
Launch date: May 10, 1999
Source: People's Republic of China (PRC)
Launch site: Taiyaun Space Center, China (TSC)

Note: This is SATELLITE DEBRIS
aabbcc
Your satellite tracking list
Your tracking list is empty




NASA's NSSDC Master Catalog

Two Line Element Set (TLE):
1 32163U 99025CTH 17315.41200280 +.00000594 +00000-0 +24343-3 0  9991
2 32163 099.5521 345.0543 0061479 234.4127 125.1314 14.30422247186654
Source of the keplerian elements: AFSPC